Time,TemperatureF,DewpointF,PressureIn,WindDirection,WindDirectionDegrees,WindSpeedMPH,WindSpeedGustMPH,Humidity,HourlyPrecipIn,Conditions,Clouds,dailyrainin,SoftwareType,DateUTC
2013-10-16 00:04:00,54.5,54.2,29.68,SW,219,3.0,-999.0,99,0.00,,,0.00,WeatherSnoop3.0,2013-10-16 04:04:00,
2013-10-16 00:09:00,54.5,54.2,29.68,WSW,242,4.0,-999.0,99,0.00,,,0.00,WeatherSnoop3.0,2013-10-16 04:09:00,
2013-10-16 00:14:00,54.5,54.2,29.68,WSW,244,3.0,-999.0,99,0.00,,,0.00,WeatherSnoop3.0,2013-10-16 04:14:00,
2013-10-16 00:19:00,54.4,54.1,29.68,WSW,244,1.0,-999.0,99,0.00,,,0.00,WeatherSnoop3.0,2013-10-16 04:19:00,
2013-10-16 00:24:00,54.4,54.1,29.68,SW,219,2.0,-999.0,99,0.00,,,0.00,WeatherSnoop3.0,2013-10-16 04:24:00,
2013-10-16 00:29:00,54.4,54.1,29.68,SW,223,2.0,-999.0,99,0.00,,,0.00,WeatherSnoop3.0,2013-10-16 04:29:00,
2013-10-16 00:34:00,54.4,54.1,29.68,SW,223,4.0,-999.0,99,0.00,,,0.00,WeatherSnoop3.0,2013-10-16 04:34:00,
2013-10-16 00:39:00,54.2,53.9,29.67,SW,217,3.0,-999.0,99,0.00,,,0.00,WeatherSnoop3.0,2013-10-16 04:39:00,
2013-10-16 00:44:00,54.2,53.9,29.67,SW,230,2.0,-999.0,99,0.00,,,0.00,WeatherSnoop3.0,2013-10-16 04:44:00,
2013-10-16 00:49:00,54.2,53.9,29.67,SW,236,2.0,-999.0,99,0.00,,,0.00,WeatherSnoop3.0,2013-10-16 04:49:00,
2013-10-16 00:54:00,54.2,53.9,29.67,SW,236,4.0,-999.0,99,0.00,,,0.00,WeatherSnoop3.0,2013-10-16 04:54:00,
2013-10-16 00:59:00,54.2,53.9,29.67,SW,235,4.0,-999.0,99,0.00,,,0.00,WeatherSnoop3.0,2013-10-16 04:59:00,
2013-10-16 01:04:00,54.2,53.9,29.67,WSW,242,1.0,-999.0,99,0.00,,,0.00,WeatherSnoop3.0,2013-10-16 05:04:00,
2013-10-16 01:09:00,54.2,53.9,29.67,WSW,242,0.0,-999.0,99,0.00,,,0.00,WeatherSnoop3.0,2013-10-16 05:09:00,
2013-10-16 01:14:00,54.2,53.9,29.67,WSW,242,2.0,-999.0,99,0.00,,,0.00,WeatherSnoop3.0,2013-10-16 05:14:00,
2013-10-16 01:19:00,54.2,53.9,29.67,WSW,242,3.0,-999.0,99,0.00,,,0.00,WeatherSnoop3.0,2013-10-16 05:19:00,
2013-10-16 01:24:00,54.1,53.8,29.67,WSW,242,0.0,-999.0,99,0.00,,,0.00,WeatherSnoop3.0,2013-10-16 05:24:00,
2013-10-16 01:29:00,54.1,53.8,29.66,WSW,242,0.0,-999.0,99,0.00,,,0.00,WeatherSnoop3.0,2013-10-16 05:29:00,
2013-10-16 01:34:00,54.1,53.8,29.66,WSW,242,0.0,-999.0,99,0.00,,,0.00,WeatherSnoop3.0,2013-10-16 05:34:00,
2013-10-16 01:39:00,54.1,53.8,29.66,WSW,243,2.0,-999.0,99,0.00,,,0.00,WeatherSnoop3.0,2013-10-16 05:39:00,
2013-10-16 01:44:00,54.1,53.8,29.66,WSW,243,0.0,-999.0,99,0.00,,,0.00,WeatherSnoop3.0,2013-10-16 05:44:00,
2013-10-16 01:49:00,54.1,53.8,29.66,WSW,243,0.0,-999.0,99,0.00,,,0.00,WeatherSnoop3.0,2013-10-16 05:49:00,
2013-10-16 01:54:00,53.9,53.6,29.66,WSW,243,0.0,-999.0,99,0.00,,,0.00,WeatherSnoop3.0,2013-10-16 05:54:00,
2013-10-16 01:59:00,53.9,53.6,29.66,WSW,243,1.0,-999.0,99,0.00,,,0.00,WeatherSnoop3.0,2013-10-16 05:59:00,
2013-10-16 02:04:00,54.1,53.8,29.66,WSW,243,0.0,-999.0,99,0.00,,,0.00,WeatherSnoop3.0,2013-10-16 06:04:00,
2013-10-16 02:09:00,53.9,53.6,29.66,WSW,243,0.0,-999.0,99,0.00,,,0.00,WeatherSnoop3.0,2013-10-16 06:09:00,
2013-10-16 02:14:00,53.9,53.6,29.65,WSW,243,0.0,-999.0,99,0.00,,,0.00,WeatherSnoop3.0,2013-10-16 06:14:00,
2013-10-16 02:19:00,53.9,53.6,29.65,WSW,243,0.0,-999.0,99,0.00,,,0.00,WeatherSnoop3.0,2013-10-16 06:19:00,
2013-10-16 02:24:00,53.9,53.6,29.65,WSW,243,1.0,-999.0,99,0.00,,,0.00,WeatherSnoop3.0,2013-10-16 06:24:00,
2013-10-16 02:29:00,53.9,53.6,29.65,WSW,243,3.0,-999.0,99,0.00,,,0.00,WeatherSnoop3.0,2013-10-16 06:29:00,
2013-10-16 02:34:00,53.8,53.5,29.65,WSW,243,0.0,-999.0,99,0.00,,,0.00,WeatherSnoop3.0,2013-10-16 06:34:00,
2013-10-16 02:39:00,53.9,53.6,29.65,WSW,243,0.0,-999.0,99,0.00,,,0.00,WeatherSnoop3.0,2013-10-16 06:39:00,
2013-10-16 02:44:00,53.9,53.6,29.65,WSW,243,0.0,-999.0,99,0.00,,,0.00,WeatherSnoop3.0,2013-10-16 06:44:00,
2013-10-16 02:49:00,53.9,53.6,29.65,WSW,243,0.0,-999.0,99,0.00,,,0.00,WeatherSnoop3.0,2013-10-16 06:49:00,
2013-10-16 02:54:00,53.9,53.6,29.65,WSW,243,0.0,-999.0,99,0.00,,,0.00,WeatherSnoop3.0,2013-10-16 06:54:00,
2013-10-16 02:59:00,53.9,53.6,29.65,WSW,243,0.0,-999.0,99,0.00,,,0.00,WeatherSnoop3.0,2013-10-16 06:59:00,
2013-10-16 03:04:00,53.8,53.5,29.65,WSW,243,0.0,-999.0,99,0.00,,,0.00,WeatherSnoop3.0,2013-10-16 07:04:00,
2013-10-16 03:19:00,53.5,53.2,29.65,WSW,250,0.0,-999.0,99,0.00,,,0.00,WeatherSnoop3.0,2013-10-16 07:19:00,
2013-10-16 03:24:00,53.3,53.0,29.65,North,355,1.0,-999.0,99,0.00,,,0.00,WeatherSnoop3.0,2013-10-16 07:24:00,
2013-10-16 03:29:00,53.2,52.9,29.65,North,355,1.0,-999.0,99,0.00,,,0.00,WeatherSnoop3.0,2013-10-16 07:29:00,
2013-10-16 03:34:00,52.9,52.6,29.65,North,5,0.0,-999.0,99,0.00,,,0.00,WeatherSnoop3.0,2013-10-16 07:34:00,
2013-10-16 03:39:00,52.8,52.5,29.65,North,5,0.0,-999.0,99,0.00,,,0.00,WeatherSnoop3.0,2013-10-16 07:39:00,
2013-10-16 03:44:00,52.5,52.2,29.65,NW,311,0.0,-999.0,99,0.00,,,0.00,WeatherSnoop3.0,2013-10-16 07:44:00,
2013-10-16 03:49:00,52.3,52.0,29.65,NW,311,0.0,-999.0,99,0.00,,,0.00,WeatherSnoop3.0,2013-10-16 07:49:00,
2013-10-16 03:54:00,52.2,51.9,29.65,NW,311,0.0,-999.0,99,0.00,,,0.00,WeatherSnoop3.0,2013-10-16 07:54:00,
2013-10-16 03:59:00,52.2,51.9,29.64,NW,311,0.0,-999.0,99,0.00,,,0.00,WeatherSnoop3.0,2013-10-16 07:59:00,
2013-10-16 04:04:00,52.2,51.9,29.64,NNW,330,0.0,-999.0,99,0.00,,,0.00,WeatherSnoop3.0,2013-10-16 08:04:00,
2013-10-16 04:09:00,52.0,51.7,29.64,NNW,330,1.0,-999.0,99,0.00,,,0.00,WeatherSnoop3.0,2013-10-16 08:09:00,
2013-10-16 04:14:00,52.0,51.7,29.64,NNW,330,0.0,-999.0,99,0.00,,,0.00,WeatherSnoop3.0,2013-10-16 08:14:00,
2013-10-16 04:19:00,51.9,51.6,29.64,NNW,330,0.0,-999.0,99,0.00,,,0.00,WeatherSnoop3.0,2013-10-16 08:19:00,
2013-10-16 04:24:00,51.9,51.6,29.64,NNW,330,0.0,-999.0,99,0.00,,,0.00,WeatherSnoop3.0,2013-10-16 08:24:00,
2013-10-16 04:29:00,51.9,51.6,29.64,NNW,330,0.0,-999.0,99,0.00,,,0.00,WeatherSnoop3.0,2013-10-16 08:29:00,
2013-10-16 04:34:00,51.9,51.6,29.63,NNW,330,0.0,-999.0,99,0.00,,,0.00,WeatherSnoop3.0,2013-10-16 08:34:00,
2013-10-16 04:39:00,51.7,51.4,29.63,NNW,330,0.0,-999.0,99,0.00,,,0.00,WeatherSnoop3.0,2013-10-16 08:39:00,
2013-10-16 04:44:00,51.7,51.4,29.63,NNW,330,0.0,-999.0,99,0.00,,,0.00,WeatherSnoop3.0,2013-10-16 08:44:00,
2013-10-16 04:49:00,51.7,51.4,29.64,NNW,330,0.0,-999.0,99,0.00,,,0.00,WeatherSnoop3.0,2013-10-16 08:49:00,
2013-10-16 04:54:00,51.6,51.3,29.64,NNW,330,0.0,-999.0,99,0.00,,,0.00,WeatherSnoop3.0,2013-10-16 08:54:00,
2013-10-16 04:59:00,51.6,51.3,29.64,NNW,330,0.0,-999.0,99,0.00,,,0.00,WeatherSnoop3.0,2013-10-16 08:59:00,
2013-10-16 05:04:00,51.6,51.3,29.64,NNW,330,0.0,-999.0,99,0.00,,,0.00,WeatherSnoop3.0,2013-10-16 09:04:00,
2013-10-16 05:09:00,51.6,51.3,29.64,NNW,330,0.0,-999.0,99,0.00,,,0.00,WeatherSnoop3.0,2013-10-16 09:09:00,
2013-10-16 05:14:00,51.6,51.3,29.64,NNW,330,0.0,-999.0,99,0.00,,,0.00,WeatherSnoop3.0,2013-10-16 09:14:00,
2013-10-16 05:19:00,51.6,51.3,29.64,NNW,330,0.0,-999.0,99,0.00,,,0.00,WeatherSnoop3.0,2013-10-16 09:19:00,
2013-10-16 05:24:00,51.6,51.3,29.64,NNW,330,0.0,-999.0,99,0.00,,,0.00,WeatherSnoop3.0,2013-10-16 09:24:00,
2013-10-16 05:29:00,51.6,51.3,29.64,NNW,330,0.0,-999.0,99,0.00,,,0.00,WeatherSnoop3.0,2013-10-16 09:29:00,
2013-10-16 05:34:00,51.6,51.3,29.64,NNW,330,0.0,-999.0,99,0.00,,,0.00,WeatherSnoop3.0,2013-10-16 09:34:00,
2013-10-16 05:39:00,51.6,51.3,29.64,NNW,330,0.0,-999.0,99,0.00,,,0.00,WeatherSnoop3.0,2013-10-16 09:39:00,
2013-10-16 05:44:00,51.6,51.3,29.65,NNW,330,0.0,-999.0,99,0.00,,,0.00,WeatherSnoop3.0,2013-10-16 09:44:00,
2013-10-16 05:49:00,51.6,51.6,29.65,NNW,330,3.0,-999.0,100,0.00,,,0.00,WeatherSnoop3.0,2013-10-16 09:49:00,
2013-10-16 05:54:00,51.6,51.6,29.65,NNW,330,0.0,-999.0,100,0.00,,,0.00,WeatherSnoop3.0,2013-10-16 09:54:00,
2013-10-16 05:59:00,51.6,51.6,29.64,NNW,330,0.0,-999.0,100,0.00,,,0.00,WeatherSnoop3.0,2013-10-16 09:59:00,
2013-10-16 06:04:00,51.6,51.6,29.64,NNW,330,0.0,-999.0,100,0.00,,,0.00,WeatherSnoop3.0,2013-10-16 10:04:00,
2013-10-16 06:09:00,51.6,51.6,29.64,NNW,330,0.0,-999.0,100,0.00,,,0.00,WeatherSnoop3.0,2013-10-16 10:09:00,
2013-10-16 06:14:00,51.6,51.6,29.64,NNW,330,0.0,-999.0,100,0.00,,,0.00,WeatherSnoop3.0,2013-10-16 10:14:00,
2013-10-16 06:19:00,51.4,51.4,29.65,NNW,330,0.0,-999.0,100,0.00,,,0.00,WeatherSnoop3.0,2013-10-16 10:19:00,
2013-10-16 06:24:00,51.4,51.4,29.64,NNW,330,0.0,-999.0,100,0.00,,,0.00,WeatherSnoop3.0,2013-10-16 10:24:00,
2013-10-16 06:29:00,51.4,51.4,29.65,NNW,330,0.0,-999.0,100,0.00,,,0.00,WeatherSnoop3.0,2013-10-16 10:29:00,
2013-10-16 06:34:00,51.4,51.4,29.65,NNW,330,0.0,-999.0,100,0.00,,,0.00,WeatherSnoop3.0,2013-10-16 10:34:00,
2013-10-16 06:39:00,51.4,51.4,29.65,NNW,330,0.0,-999.0,100,0.00,,,0.00,WeatherSnoop3.0,2013-10-16 10:39:00,
2013-10-16 06:44:00,51.4,51.4,29.65,NNW,330,2.0,-999.0,100,0.00,,,0.00,WeatherSnoop3.0,2013-10-16 10:44:00,
2013-10-16 06:49:00,51.4,51.4,29.65,NNW,330,2.0,-999.0,100,0.00,,,0.00,WeatherSnoop3.0,2013-10-16 10:49:00,
2013-10-16 06:54:00,51.4,51.4,29.65,NNW,330,1.0,-999.0,100,0.00,,,0.00,WeatherSnoop3.0,2013-10-16 10:54:00,
2013-10-16 06:59:00,51.4,51.4,29.65,NNW,330,0.0,-999.0,100,0.00,,,0.00,WeatherSnoop3.0,2013-10-16 10:59:00,
2013-10-16 07:04:00,51.4,51.4,29.65,NNW,330,1.0,-999.0,100,0.00,,,0.00,WeatherSnoop3.0,2013-10-16 11:04:00,
2013-10-16 07:09:00,51.4,51.4,29.65,NNW,330,0.0,-999.0,100,0.00,,,0.00,WeatherSnoop3.0,2013-10-16 11:09:00,
2013-10-16 07:14:00,51.4,51.4,29.66,NNW,342,3.0,-999.0,100,0.00,,,0.00,WeatherSnoop3.0,2013-10-16 11:14:00,
2013-10-16 07:19:00,51.4,51.4,29.66,North,5,3.0,-999.0,100,0.00,,,0.00,WeatherSnoop3.0,2013-10-16 11:19:00,
2013-10-16 07:24:00,51.3,51.0,29.66,NW,317,2.0,-999.0,99,0.00,,,0.00,WeatherSnoop3.0,2013-10-16 11:24:00,
2013-10-16 07:29:00,51.1,50.8,29.66,NNW,330,3.0,-999.0,99,0.00,,,0.00,WeatherSnoop3.0,2013-10-16 11:29:00,
2013-10-16 07:39:00,50.5,50.2,29.67,NW,323,8.0,-999.0,99,0.00,,,0.00,WeatherSnoop3.0,2013-10-16 11:39:00,
2013-10-16 07:44:00,50.4,50.1,29.67,NNW,337,1.0,-999.0,99,0.00,,,0.00,WeatherSnoop3.0,2013-10-16 11:44:00,
2013-10-16 07:49:00,50.2,49.9,29.67,NW,306,6.0,-999.0,99,0.00,,,0.00,WeatherSnoop3.0,2013-10-16 11:49:00,
2013-10-16 07:54:00,50.1,49.8,29.67,NNW,333,2.0,-999.0,99,0.00,,,0.00,WeatherSnoop3.0,2013-10-16 11:54:00,
2013-10-16 07:59:00,49.8,49.5,29.68,WNW,295,3.0,-999.0,99,0.00,,,0.00,WeatherSnoop3.0,2013-10-16 11:59:00,
2013-10-16 08:04:00,49.8,49.5,29.68,NNW,329,1.0,-999.0,99,0.00,,,0.00,WeatherSnoop3.0,2013-10-16 12:04:00,
2013-10-16 08:09:00,49.6,49.3,29.68,NW,318,2.0,-999.0,99,0.00,,,0.00,WeatherSnoop3.0,2013-10-16 12:09:00,
2013-10-16 08:14:00,49.5,49.2,29.68,NW,326,2.0,-999.0,99,0.00,,,0.01,WeatherSnoop3.0,2013-10-16 12:14:00,
2013-10-16 08:19:00,49.4,49.1,29.68,West,269,2.0,-999.0,99,0.00,,,0.01,WeatherSnoop3.0,2013-10-16 12:19:00,
2013-10-16 08:24:00,49.4,49.1,29.68,WNW,298,0.0,-999.0,99,0.00,,,0.01,WeatherSnoop3.0,2013-10-16 12:24:00,
2013-10-16 08:29:00,49.2,48.9,29.69,NNW,328,6.0,-999.0,99,0.00,,,0.01,WeatherSnoop3.0,2013-10-16 12:29:00,
2013-10-16 08:34:00,49.2,48.9,29.69,NW,309,3.0,-999.0,99,0.00,,,0.02,WeatherSnoop3.0,2013-10-16 12:34:00,
2013-10-16 08:39:00,49.1,48.8,29.69,North,349,1.0,-999.0,99,0.00,,,0.02,WeatherSnoop3.0,2013-10-16 12:39:00,
2013-10-16 08:44:00,49.1,48.8,29.70,North,355,1.0,-999.0,99,0.00,,,0.02,WeatherSnoop3.0,2013-10-16 12:44:00,
2013-10-16 08:49:00,48.9,48.6,29.70,WNW,287,2.0,-999.0,99,0.00,,,0.02,WeatherSnoop3.0,2013-10-16 12:49:00,
2013-10-16 08:54:00,48.9,48.6,29.70,North,355,0.0,-999.0,99,0.00,,,0.02,WeatherSnoop3.0,2013-10-16 12:54:00,
2013-10-16 08:59:00,48.9,48.6,29.70,WNW,298,1.0,-999.0,99,0.00,,,0.02,WeatherSnoop3.0,2013-10-16 12:59:00,
2013-10-16 09:04:00,48.8,48.5,29.71,NW,313,1.0,-999.0,99,0.00,,,0.02,WeatherSnoop3.0,2013-10-16 13:04:00,
2013-10-16 09:09:00,48.6,48.3,29.71,WNW,301,0.0,-999.0,99,0.00,,,0.02,WeatherSnoop3.0,2013-10-16 13:09:00,
2013-10-16 09:14:00,48.5,48.2,29.71,WNW,301,4.0,-999.0,99,0.00,,,0.02,WeatherSnoop3.0,2013-10-16 13:14:00,
2013-10-16 09:19:00,48.3,48.0,29.71,West,269,6.0,-999.0,99,0.00,,,0.02,WeatherSnoop3.0,2013-10-16 13:19:00,
2013-10-16 09:29:00,48.0,47.7,29.72,ESE,109,3.0,-999.0,99,0.00,,,0.02,WeatherSnoop3.0,2013-10-16 13:29:00,
2013-10-16 09:34:00,48.0,47.7,29.72,NNW,344,0.0,-999.0,99,0.00,,,0.02,WeatherSnoop3.0,2013-10-16 13:34:00,
2013-10-16 09:44:00,47.6,47.3,29.72,NNW,342,1.0,-999.0,99,0.00,,,0.02,WeatherSnoop3.0,2013-10-16 13:44:00,
2013-10-16 09:49:00,47.6,47.3,29.72,North,350,3.0,-999.0,99,0.00,,,0.02,WeatherSnoop3.0,2013-10-16 13:49:00,
2013-10-16 09:59:00,47.3,47.0,29.73,ENE,60,4.0,-999.0,99,0.00,,,0.02,WeatherSnoop3.0,2013-10-16 13:59:00,
2013-10-16 10:04:00,47.1,46.8,29.73,ESE,115,7.0,-999.0,99,0.00,,,0.02,WeatherSnoop3.0,2013-10-16 14:04:00,
2013-10-16 10:09:00,47.1,46.8,29.73,NW,319,2.0,-999.0,99,0.00,,,0.02,WeatherSnoop3.0,2013-10-16 14:09:00,
2013-10-16 10:14:00,47.3,47.0,29.73,NNW,336,1.0,-999.0,99,0.00,,,0.02,WeatherSnoop3.0,2013-10-16 14:14:00,
2013-10-16 10:24:00,47.1,46.8,29.73,North,355,8.0,-999.0,99,0.00,,,0.03,WeatherSnoop3.0,2013-10-16 14:24:00,
2013-10-16 10:34:00,47.1,46.6,29.74,NNW,344,4.0,-999.0,98,0.00,,,0.03,WeatherSnoop3.0,2013-10-16 14:34:00,
2013-10-16 10:39:00,47.1,46.6,29.74,WNW,294,4.0,-999.0,98,0.00,,,0.03,WeatherSnoop3.0,2013-10-16 14:39:00,
2013-10-16 10:49:00,47.0,46.5,29.74,WNW,288,2.0,-999.0,98,0.00,,,0.03,WeatherSnoop3.0,2013-10-16 14:49:00,
2013-10-16 10:59:00,47.0,46.5,29.75,NNE,18,0.0,-999.0,98,0.00,,,0.03,WeatherSnoop3.0,2013-10-16 14:59:00,
2013-10-16 11:09:00,47.0,46.5,29.75,NW,314,3.0,-999.0,98,0.00,,,0.03,WeatherSnoop3.0,2013-10-16 15:09:00,
2013-10-16 11:14:00,47.0,46.2,29.75,WNW,298,1.0,-999.0,97,0.00,,,0.03,WeatherSnoop3.0,2013-10-16 15:14:00,
2013-10-16 11:19:00,46.8,46.0,29.75,NNW,332,3.0,-999.0,97,0.00,,,0.03,WeatherSnoop3.0,2013-10-16 15:19:00,
2013-10-16 11:24:00,46.7,45.9,29.76,NNW,343,1.0,-999.0,97,0.00,,,0.03,WeatherSnoop3.0,2013-10-16 15:24:00,
2013-10-16 11:34:00,46.4,45.6,29.76,NW,309,2.0,-999.0,97,0.00,,,0.03,WeatherSnoop3.0,2013-10-16 15:34:00,
2013-10-16 11:44:00,46.5,45.4,29.76,NW,314,3.0,-999.0,96,0.00,,,0.03,WeatherSnoop3.0,2013-10-16 15:44:00,
2013-10-16 11:54:00,46.5,45.4,29.77,North,355,6.0,-999.0,96,0.00,,,0.03,WeatherSnoop3.0,2013-10-16 15:54:00,
2013-10-16 11:59:00,46.4,45.3,29.77,NNE,15,11.0,-999.0,96,0.00,,,0.03,WeatherSnoop3.0,2013-10-16 15:59:00,
2013-10-16 12:09:00,46.2,44.8,29.77,WSW,256,2.0,-999.0,95,0.00,,,0.03,WeatherSnoop3.0,2013-10-16 16:09:00,
2013-10-16 12:14:00,46.2,44.8,29.77,NNW,344,6.0,-999.0,95,0.00,,,0.03,WeatherSnoop3.0,2013-10-16 16:14:00,
2013-10-16 12:19:00,46.4,45.0,29.77,West,265,5.0,-999.0,95,0.00,,,0.03,WeatherSnoop3.0,2013-10-16 16:19:00,
2013-10-16 12:24:00,46.5,45.1,29.77,West,281,10.0,-999.0,95,0.00,,,0.03,WeatherSnoop3.0,2013-10-16 16:24:00,
2013-10-16 12:34:00,46.7,45.1,29.77,WNW,303,0.0,-999.0,94,0.00,,,0.03,WeatherSnoop3.0,2013-10-16 16:34:00,
2013-10-16 12:44:00,47.0,45.4,29.78,NW,306,2.0,-999.0,94,0.00,,,0.03,WeatherSnoop3.0,2013-10-16 16:44:00,
2013-10-16 12:54:00,47.1,45.2,29.78,NW,326,1.0,-999.0,93,0.00,,,0.03,WeatherSnoop3.0,2013-10-16 16:54:00,
2013-10-16 12:59:00,47.0,45.1,29.78,NNW,348,2.0,-999.0,93,0.00,,,0.03,WeatherSnoop3.0,2013-10-16 16:59:00,
2013-10-16 13:09:00,46.8,44.9,29.78,WNW,300,0.0,-999.0,93,0.00,,,0.03,WeatherSnoop3.0,2013-10-16 17:09:00,
2013-10-16 13:19:00,47.0,44.8,29.79,WNW,294,0.0,-999.0,92,0.00,,,0.03,WeatherSnoop3.0,2013-10-16 17:19:00,
2013-10-16 13:29:00,47.3,45.1,29.79,NE,35,0.0,-999.0,92,0.00,,,0.03,WeatherSnoop3.0,2013-10-16 17:29:00,
2013-10-16 13:34:00,47.3,45.1,29.79,WNW,293,0.0,-999.0,92,0.00,,,0.03,WeatherSnoop3.0,2013-10-16 17:34:00,
2013-10-16 13:39:00,47.4,45.2,29.79,NW,323,6.0,-999.0,92,0.00,,,0.03,WeatherSnoop3.0,2013-10-16 17:39:00,
2013-10-16 13:44:00,47.4,45.2,29.79,NNW,328,4.0,-999.0,92,0.00,,,0.03,WeatherSnoop3.0,2013-10-16 17:44:00,
2013-10-16 13:49:00,47.4,44.9,29.79,WNW,294,2.0,-999.0,91,0.00,,,0.03,WeatherSnoop3.0,2013-10-16 17:49:00,
2013-10-16 13:59:00,47.4,44.3,29.79,NW,326,2.0,-999.0,89,0.00,,,0.03,WeatherSnoop3.0,2013-10-16 17:59:00,
2013-10-16 14:04:00,47.6,44.5,29.79,NW,306,8.0,-999.0,89,0.00,,,0.03,WeatherSnoop3.0,2013-10-16 18:04:00,
2013-10-16 14:14:00,48.0,44.3,29.79,North,355,0.0,-999.0,87,0.00,,,0.03,WeatherSnoop3.0,2013-10-16 18:14:00,
2013-10-16 14:19:00,48.0,44.3,29.79,WNW,296,3.0,-999.0,87,0.00,,,0.03,WeatherSnoop3.0,2013-10-16 18:19:00,
2013-10-16 14:29:00,48.0,44.0,29.79,North,355,4.0,-999.0,86,0.00,,,0.03,WeatherSnoop3.0,2013-10-16 18:29:00,
2013-10-16 14:34:00,48.0,43.7,29.79,WNW,282,2.0,-999.0,85,0.00,,,0.03,WeatherSnoop3.0,2013-10-16 18:34:00,
2013-10-16 14:39:00,48.0,43.7,29.79,West,278,2.0,-999.0,85,0.00,,,0.03,WeatherSnoop3.0,2013-10-16 18:39:00,
2013-10-16 14:44:00,47.9,43.9,29.79,NW,312,2.0,-999.0,86,0.00,,,0.03,WeatherSnoop3.0,2013-10-16 18:44:00,
2013-10-16 14:49:00,47.6,43.3,29.79,West,260,5.0,-999.0,85,0.00,,,0.03,WeatherSnoop3.0,2013-10-16 18:49:00,
2013-10-16 14:59:00,47.4,43.1,29.80,NW,321,5.0,-999.0,85,0.00,,,0.03,WeatherSnoop3.0,2013-10-16 18:59:00,
2013-10-16 15:04:00,47.4,43.1,29.80,NW,314,4.0,-999.0,85,0.00,,,0.03,WeatherSnoop3.0,2013-10-16 19:04:00,
2013-10-16 15:14:00,47.6,43.3,29.80,WNW,286,2.0,-999.0,85,0.00,,,0.03,WeatherSnoop3.0,2013-10-16 19:14:00,
2013-10-16 15:24:00,47.9,43.6,29.80,West,268,1.0,-999.0,85,0.00,,,0.03,WeatherSnoop3.0,2013-10-16 19:24:00,
2013-10-16 15:29:00,47.7,43.4,29.80,NNW,329,0.0,-999.0,85,0.00,,,0.03,WeatherSnoop3.0,2013-10-16 19:29:00,
2013-10-16 15:34:00,47.7,43.4,29.80,NNW,345,2.0,-999.0,85,0.00,,,0.03,WeatherSnoop3.0,2013-10-16 19:34:00,
2013-10-16 15:44:00,47.4,43.4,29.80,WNW,294,3.0,-999.0,86,0.00,,,0.03,WeatherSnoop3.0,2013-10-16 19:44:00,
2013-10-16 15:49:00,47.3,43.3,29.80,WNW,300,5.0,-999.0,86,0.00,,,0.03,WeatherSnoop3.0,2013-10-16 19:49:00,
2013-10-16 15:54:00,47.3,43.0,29.80,WNW,296,3.0,-999.0,85,0.00,,,0.03,WeatherSnoop3.0,2013-10-16 19:54:00,
2013-10-16 16:04:00,47.4,43.1,29.81,NW,315,3.0,-999.0,85,0.00,,,0.03,WeatherSnoop3.0,2013-10-16 20:04:00,
2013-10-16 16:09:00,47.4,42.8,29.81,NNW,338,4.0,-999.0,84,0.00,,,0.03,WeatherSnoop3.0,2013-10-16 20:09:00,
2013-10-16 16:14:00,47.6,43.0,29.81,WNW,288,4.0,-999.0,84,0.00,,,0.03,WeatherSnoop3.0,2013-10-16 20:14:00,
2013-10-16 16:24:00,47.7,42.8,29.81,WNW,290,3.0,-999.0,83,0.00,,,0.03,WeatherSnoop3.0,2013-10-16 20:24:00,
2013-10-16 16:29:00,47.7,42.5,29.81,West,276,3.0,-999.0,82,0.00,,,0.03,WeatherSnoop3.0,2013-10-16 20:29:00,
2013-10-16 16:34:00,47.6,42.4,29.81,WNW,298,4.0,-999.0,82,0.00,,,0.03,WeatherSnoop3.0,2013-10-16 20:34:00,
2013-10-16 16:39:00,47.6,42.4,29.81,West,276,0.0,-999.0,82,0.00,,,0.03,WeatherSnoop3.0,2013-10-16 20:39:00,
2013-10-16 16:44:00,47.4,42.2,29.82,NW,306,2.0,-999.0,82,0.00,,,0.03,WeatherSnoop3.0,2013-10-16 20:44:00,
2013-10-16 16:49:00,47.4,42.5,29.82,WNW,302,1.0,-999.0,83,0.00,,,0.03,WeatherSnoop3.0,2013-10-16 20:49:00,
2013-10-16 16:59:00,47.3,42.4,29.82,WNW,293,0.0,-999.0,83,0.00,,,0.03,WeatherSnoop3.0,2013-10-16 20:59:00,
2013-10-16 17:09:00,47.3,42.4,29.82,WSW,248,1.0,-999.0,83,0.00,,,0.03,WeatherSnoop3.0,2013-10-16 21:09:00,
2013-10-16 17:14:00,47.1,41.9,29.82,West,265,2.0,-999.0,82,0.00,,,0.03,WeatherSnoop3.0,2013-10-16 21:14:00,
2013-10-16 17:19:00,47.0,41.8,29.82,WNW,302,1.0,-999.0,82,0.00,,,0.03,WeatherSnoop3.0,2013-10-16 21:19:00,
2013-10-16 17:24:00,47.0,41.8,29.82,NW,313,4.0,-999.0,82,0.00,,,0.03,WeatherSnoop3.0,2013-10-16 21:24:00,
2013-10-16 17:34:00,46.8,41.9,29.82,WNW,284,3.0,-999.0,83,0.00,,,0.03,WeatherSnoop3.0,2013-10-16 21:34:00,
2013-10-16 17:39:00,46.8,41.9,29.83,NNW,327,3.0,-999.0,83,0.00,,,0.03,WeatherSnoop3.0,2013-10-16 21:39:00,
2013-10-16 17:44:00,46.7,41.5,29.83,NNW,336,3.0,-999.0,82,0.00,,,0.03,WeatherSnoop3.0,2013-10-16 21:44:00,
2013-10-16 17:49:00,46.7,41.2,29.83,NW,320,5.0,-999.0,81,0.00,,,0.03,WeatherSnoop3.0,2013-10-16 21:49:00,
2013-10-16 17:54:00,46.7,40.9,29.83,WNW,285,4.0,-999.0,80,0.00,,,0.03,WeatherSnoop3.0,2013-10-16 21:54:00,
2013-10-16 17:59:00,46.7,41.2,29.84,NNW,339,3.0,-999.0,81,0.00,,,0.03,WeatherSnoop3.0,2013-10-16 21:59:00,
2013-10-16 18:04:00,46.7,41.2,29.84,NNW,329,0.0,-999.0,81,0.00,,,0.03,WeatherSnoop3.0,2013-10-16 22:04:00,
2013-10-16 18:09:00,46.5,40.3,29.84,WNW,293,1.0,-999.0,79,0.00,,,0.03,WeatherSnoop3.0,2013-10-16 22:09:00,
2013-10-16 18:19:00,46.5,41.0,29.84,WNW,302,2.0,-999.0,81,0.00,,,0.03,WeatherSnoop3.0,2013-10-16 22:19:00,
2013-10-16 18:24:00,46.5,40.3,29.84,NW,308,2.0,-999.0,79,0.00,,,0.03,WeatherSnoop3.0,2013-10-16 22:24:00,
2013-10-16 18:29:00,46.4,40.6,29.85,WNW,290,3.0,-999.0,80,0.00,,,0.03,WeatherSnoop3.0,2013-10-16 22:29:00,
2013-10-16 18:39:00,46.4,40.2,29.85,NNW,338,0.0,-999.0,79,0.00,,,0.03,WeatherSnoop3.0,2013-10-16 22:39:00,
2013-10-16 18:44:00,46.4,40.6,29.85,WNW,299,3.0,-999.0,80,0.00,,,0.03,WeatherSnoop3.0,2013-10-16 22:44:00,
2013-10-16 18:49:00,46.2,40.4,29.85,WNW,301,2.0,-999.0,80,0.00,,,0.03,WeatherSnoop3.0,2013-10-16 22:49:00,
2013-10-16 18:59:00,46.2,40.1,29.86,West,267,1.0,-999.0,79,0.00,,,0.03,WeatherSnoop3.0,2013-10-16 22:59:00,
2013-10-16 19:04:00,46.1,40.3,29.86,WNW,284,1.0,-999.0,80,0.00,,,0.03,WeatherSnoop3.0,2013-10-16 23:04:00,
2013-10-16 19:09:00,46.1,40.6,29.86,WNW,284,0.0,-999.0,81,0.00,,,0.03,WeatherSnoop3.0,2013-10-16 23:09:00,
2013-10-16 19:19:00,46.0,40.8,29.86,West,260,2.0,-999.0,82,0.00,,,0.03,WeatherSnoop3.0,2013-10-16 23:19:00,
2013-10-16 19:29:00,45.8,40.6,29.86,West,267,2.0,-999.0,82,0.00,,,0.03,WeatherSnoop3.0,2013-10-16 23:29:00,
2013-10-16 19:39:00,45.7,40.5,29.86,West,278,2.0,-999.0,82,0.00,,,0.03,WeatherSnoop3.0,2013-10-16 23:39:00,
2013-10-16 19:44:00,45.5,40.3,29.87,West,278,0.0,-999.0,82,0.00,,,0.03,WeatherSnoop3.0,2013-10-16 23:44:00,
2013-10-16 19:54:00,45.4,39.9,29.87,West,259,0.0,-999.0,81,0.00,,,0.03,WeatherSnoop3.0,2013-10-16 23:54:00,
2013-10-16 19:59:00,45.4,39.9,29.87,WNW,284,0.0,-999.0,81,0.00,,,0.03,WeatherSnoop3.0,2013-10-16 23:59:00,
2013-10-16 20:04:00,45.2,39.7,29.87,WNW,282,0.0,-999.0,81,0.00,,,0.03,WeatherSnoop3.0,2013-10-17 00:04:00,
2013-10-16 20:14:00,45.1,39.6,29.87,West,273,0.0,-999.0,81,0.00,,,0.03,WeatherSnoop3.0,2013-10-17 00:14:00,
2013-10-16 20:24:00,44.9,39.4,29.88,West,273,0.0,-999.0,81,0.00,,,0.03,WeatherSnoop3.0,2013-10-17 00:24:00,
2013-10-16 20:29:00,44.8,39.3,29.88,West,273,0.0,-999.0,81,0.00,,,0.03,WeatherSnoop3.0,2013-10-17 00:29:00,
2013-10-16 20:34:00,44.6,38.8,29.88,West,273,2.0,-999.0,80,0.00,,,0.03,WeatherSnoop3.0,2013-10-17 00:34:00,
2013-10-16 20:44:00,44.5,39.4,29.88,West,273,1.0,-999.0,82,0.00,,,0.03,WeatherSnoop3.0,2013-10-17 00:44:00,
2013-10-16 20:49:00,44.3,39.2,29.88,West,273,3.0,-999.0,82,0.00,,,0.03,WeatherSnoop3.0,2013-10-17 00:49:00,
2013-10-16 20:59:00,43.9,38.5,29.88,West,272,0.0,-999.0,81,0.00,,,0.03,WeatherSnoop3.0,2013-10-17 00:59:00,
2013-10-16 21:04:00,43.8,38.4,29.89,West,267,0.0,-999.0,81,0.00,,,0.03,WeatherSnoop3.0,2013-10-17 01:04:00,
2013-10-16 21:09:00,43.6,38.2,29.89,West,267,0.0,-999.0,81,0.00,,,0.03,WeatherSnoop3.0,2013-10-17 01:09:00,
2013-10-16 21:14:00,43.6,38.8,29.89,West,267,0.0,-999.0,83,0.00,,,0.03,WeatherSnoop3.0,2013-10-17 01:14:00,
2013-10-16 21:19:00,43.5,38.7,29.89,West,267,0.0,-999.0,83,0.00,,,0.03,WeatherSnoop3.0,2013-10-17 01:19:00,
2013-10-16 21:24:00,43.3,38.5,29.89,West,271,1.0,-999.0,83,0.00,,,0.03,WeatherSnoop3.0,2013-10-17 01:24:00,
2013-10-16 21:29:00,43.2,38.1,29.89,West,271,2.0,-999.0,82,0.00,,,0.03,WeatherSnoop3.0,2013-10-17 01:29:00,
2013-10-16 21:39:00,43.1,38.3,29.89,West,271,1.0,-999.0,83,0.00,,,0.03,WeatherSnoop3.0,2013-10-17 01:39:00,
2013-10-16 21:44:00,42.9,38.4,29.89,West,271,1.0,-999.0,84,0.00,,,0.03,WeatherSnoop3.0,2013-10-17 01:44:00,
2013-10-16 21:54:00,42.6,38.4,29.89,West,271,0.0,-999.0,85,0.00,,,0.03,WeatherSnoop3.0,2013-10-17 01:54:00,
2013-10-16 22:04:00,42.2,38.0,29.90,West,271,1.0,-999.0,85,0.00,,,0.03,WeatherSnoop3.0,2013-10-17 02:04:00,
2013-10-16 22:09:00,42.1,37.9,29.90,West,271,0.0,-999.0,85,0.00,,,0.03,WeatherSnoop3.0,2013-10-17 02:09:00,
2013-10-16 22:19:00,42.3,37.8,29.90,West,263,3.0,-999.0,84,0.00,,,0.03,WeatherSnoop3.0,2013-10-17 02:19:00,
2013-10-16 22:24:00,42.8,38.3,29.90,West,272,4.0,-999.0,84,0.00,,,0.03,WeatherSnoop3.0,2013-10-17 02:24:00,
2013-10-16 22:34:00,42.9,38.4,29.90,West,261,4.0,-999.0,84,0.00,,,0.03,WeatherSnoop3.0,2013-10-17 02:34:00,
2013-10-16 22:39:00,43.1,38.3,29.90,WSW,258,1.0,-999.0,83,0.00,,,0.03,WeatherSnoop3.0,2013-10-17 02:39:00,
2013-10-16 22:44:00,43.2,38.1,29.90,West,265,3.0,-999.0,82,0.00,,,0.03,WeatherSnoop3.0,2013-10-17 02:44:00,
2013-10-16 22:54:00,43.5,38.1,29.90,WSW,253,2.0,-999.0,81,0.00,,,0.03,WeatherSnoop3.0,2013-10-17 02:54:00,
2013-10-16 22:59:00,43.6,38.2,29.90,WSW,248,3.0,-999.0,81,0.00,,,0.03,WeatherSnoop3.0,2013-10-17 02:59:00,
2013-10-16 23:09:00,43.6,38.2,29.90,WSW,248,0.0,-999.0,81,0.00,,,0.03,WeatherSnoop3.0,2013-10-17 03:09:00,
2013-10-16 23:19:00,43.5,38.4,29.90,WSW,248,1.0,-999.0,82,0.00,,,0.03,WeatherSnoop3.0,2013-10-17 03:19:00,
2013-10-16 23:29:00,43.3,38.8,29.90,WSW,248,1.0,-999.0,84,0.00,,,0.03,WeatherSnoop3.0,2013-10-17 03:29:00,
2013-10-16 23:34:00,43.2,38.4,29.90,WSW,248,0.0,-999.0,83,0.00,,,0.03,WeatherSnoop3.0,2013-10-17 03:34:00,
2013-10-16 23:39:00,43.2,38.4,29.90,WSW,248,1.0,-999.0,83,0.00,,,0.03,WeatherSnoop3.0,2013-10-17 03:39:00,
2013-10-16 23:49:00,43.1,38.6,29.90,WSW,248,0.0,-999.0,84,0.00,,,0.03,WeatherSnoop3.0,2013-10-17 03:49:00,
2013-10-16 23:59:00,42.9,38.4,29.91,WSW,248,1.0,-999.0,84,0.00,,,0.03,WeatherSnoop3.0,2013-10-17 03:59:00,